| time (UTC) | temp F | wind direction | speed MPH | gust MPH | rain 1hr in | rain 24hr in | rain mn in | humidity % | barometer mb |
| 20260903020326 | 82 | 142 | 9.0 | 14.0 | 0.00 | 0.02 | 0.02 | 72 | 1012.1 |
| 20260903015831 | 82 | 121 | 4.0 | 10.0 | 0.00 | 0.02 | 0.02 | 72 | 1012.1 |
| 20260903015402 | 82 | 102 | 6.0 | 10.0 | 0.00 | 0.02 | 0.02 | 72 | 1012.1 |
| 20260903014846 | 82 | 52 | 4.0 | 9.0 | 0.00 | 0.02 | 0.02 | 72 | 1011.9 |
| 20260903014329 | 82 | 120 | 4.0 | 10.0 | 0.00 | 0.02 | 0.02 | 71 | 1011.9 |
| 20260903013831 | 82 | 138 | 6.0 | 11.0 | 0.00 | 0.02 | 0.02 | 71 | 1011.8 |
| 20260903013319 | 82 | 103 | 6.0 | 11.0 | 0.00 | 0.02 | 0.02 | 71 | 1011.7 |
| 20260903012846 | 82 | 125 | 5.0 | 10.0 | 0.00 | 0.02 | 0.02 | 71 | 1011.7 |
| 20260903012329 | 83 | 98 | 6.0 | 10.0 | 0.00 | 0.02 | 0.02 | 71 | 1011.7 |
| 20260903011835 | 83 | 101 | 5.0 | 9.0 | 0.00 | 0.02 | 0.02 | 71 | 1011.7 |
| 20260903011319 | 83 | 85 | 4.0 | 11.0 | 0.00 | 0.02 | 0.02 | 71 | 1011.7 |
| 20260903010831 | 83 | 71 | 5.0 | 11.0 | 0.00 | 0.02 | 0.02 | 70 | 1011.5 |
| 20260903010338 | 83 | 70 | 4.0 | 8.0 | 0.00 | 0.02 | 0.02 | 70 | 1011.4 |
| 20260903005824 | 83 | 63 | 4.0 | 9.0 | 0.00 | 0.02 | 0.02 | 70 | 1011.5 |
| 20260903005330 | 83 | 60 | 5.0 | 9.0 | 0.00 | 0.02 | 0.02 | 70 | 1011.4 |
| 20260903004831 | 83 | 57 | 4.0 | 9.0 | 0.00 | 0.02 | 0.02 | 70 | 1011.4 |
| 20260903004336 | 84 | 88 | 5.0 | 10.0 | 0.00 | 0.02 | 0.02 | 70 | 1011.3 |
| 20260903003821 | 84 | 109 | 5.0 | 12.0 | 0.00 | 0.02 | 0.02 | 70 | 1011.2 |
| 20260903003328 | 84 | 71 | 5.0 | 15.0 | 0.00 | 0.02 | 0.02 | 70 | 1011.1 |
| 20260903002832 | 84 | 103 | 9.0 | 15.0 | 0.00 | 0.02 | 0.02 | 70 | 1011.0 |
| 20260903002317 | 84 | 164 | 7.0 | 16.0 | 0.00 | 0.02 | 0.02 | 69 | 1011.0 |
| 20260903001823 | 85 | 91 | 7.0 | 16.0 | 0.00 | 0.02 | 0.02 | 69 | 1011.1 |
| 20260903001323 | 85 | 133 | 7.0 | 16.0 | 0.00 | 0.02 | 0.02 | 69 | 1011.1 |
| 20260903000836 | 85 | 72 | 8.0 | 17.0 | 0.00 | 0.02 | 0.02 | 69 | 1011.2 |
| 20260903000342 | 86 | 92 | 7.0 | 15.0 | 0.00 | 0.02 | 0.02 | 69 | 1011.2 |
| 20260902235827 | 86 | 89 | 7.0 | 15.0 | 0.00 | 0.02 | 0.02 | 69 | 1011.3 |
| 20260902235330 | 86 | 96 | 11.0 | 15.0 | 0.00 | 0.02 | 0.02 | 69 | 1011.2 |
| 20260902234835 | 87 | 60 | 9.0 | 15.0 | 0.00 | 0.02 | 0.02 | 69 | 1011.2 |
| 20260902234341 | 87 | 88 | 8.0 | 14.0 | 0.00 | 0.02 | 0.02 | 69 | 1011.3 |
| 20260902233830 | 87 | 99 | 10.0 | 19.0 | 0.00 | 0.02 | 0.02 | 69 | 1011.2 |
| 20260902233336 | 87 | 96 | 11.0 | 19.0 | 0.00 | 0.02 | 0.02 | 69 | 1011.3 |
| 20260902232823 | 87 | 52 | 10.0 | 17.0 | 0.00 | 0.02 | 0.02 | 69 | 1011.4 |
| 20260902232326 | 87 | 71 | 10.0 | 20.0 | 0.00 | 0.02 | 0.02 | 69 | 1011.3 |
| 20260902231901 | 87 | 71 | 12.0 | 20.0 | 0.00 | 0.02 | 0.02 | 69 | 1011.3 |
| 20260902231326 | 87 | 75 | 7.0 | 15.0 | 0.00 | 0.02 | 0.02 | 69 | 1011.2 |
| 20260902230831 | 87 | 71 | 8.0 | 18.0 | 0.00 | 0.02 | 0.02 | 68 | 1011.1 |
| 20260902230336 | 87 | 57 | 11.0 | 18.0 | 0.00 | 0.02 | 0.02 | 68 | 1011.2 |
| 20260902225838 | 87 | 44 | 9.0 | 17.0 | 0.00 | 0.02 | 0.02 | 68 | 1011.2 |
| 20260902225318 | 87 | 49 | 9.0 | 16.0 | 0.00 | 0.02 | 0.02 | 68 | 1011.0 |
| 20260902224824 | 87 | 53 | 7.0 | 14.0 | 0.00 | 0.02 | 0.02 | 68 | 1010.9 |
| 20260902224329 | 87 | 80 | 6.0 | 14.0 | 0.00 | 0.02 | 0.02 | 68 | 1010.7 |
| 20260902223834 | 87 | 84 | 9.0 | 14.0 | 0.00 | 0.02 | 0.02 | 68 | 1010.6 |
| 20260902223318 | 87 | 83 | 7.0 | 14.0 | 0.00 | 0.02 | 0.02 | 67 | 1010.6 |
| 20260902222823 | 87 | 64 | 6.0 | 13.0 | 0.00 | 0.02 | 0.02 | 67 | 1010.6 |
| 20260902222355 | 87 | 69 | 9.0 | 13.0 | 0.00 | 0.02 | 0.02 | 67 | 1010.5 |
| 20260902221843 | 87 | 108 | 7.0 | 13.0 | 0.00 | 0.02 | 0.02 | 67 | 1010.4 |
| 20260902221327 | 87 | 88 | 9.0 | 13.0 | 0.00 | 0.02 | 0.02 | 67 | 1010.5 |
| 20260902220839 | 87 | 65 | 7.0 | 10.0 | 0.00 | 0.02 | 0.02 | 66 | 1010.4 |
| 20260902220320 | 88 | 54 | 5.0 | 13.0 | 0.00 | 0.02 | 0.02 | 66 | 1010.4 |
| 20260902215834 | 88 | 68 | 8.0 | 13.0 | 0.00 | 0.02 | 0.02 | 66 | 1010.4 |
| 20260902215338 | 88 | 98 | 6.0 | 15.0 | 0.00 | 0.02 | 0.02 | 66 | 1010.4 |
| 20260902214826 | 88 | 40 | 8.0 | 15.0 | 0.00 | 0.02 | 0.02 | 65 | 1010.5 |
| 20260902214346 | 88 | 100 | 4.0 | 15.0 | 0.01 | 0.02 | 0.02 | 65 | 1010.5 |
| 20260902213835 | 88 | 71 | 4.0 | 9.0 | 0.02 | 0.02 | 0.02 | 65 | 1010.5 |
| 20260902213321 | 88 | 114 | 2.0 | 7.0 | 0.02 | 0.02 | 0.02 | 64 | 1010.4 |
| 20260902212826 | 87 | 98 | 4.0 | 8.0 | 0.02 | 0.02 | 0.02 | 64 | 1010.5 |
| 20260902212333 | 87 | 95 | 5.0 | 8.0 | 0.02 | 0.02 | 0.02 | 63 | 1010.6 |
| 20260902211845 | 87 | 89 | 5.0 | 8.0 | 0.02 | 0.02 | 0.02 | 62 | 1010.6 |
| 20260902211351 | 87 | 86 | 5.0 | 7.0 | 0.02 | 0.02 | 0.02 | 62 | 1010.6 |
| 20260902210818 | 88 | 65 | 3.0 | 5.0 | 0.02 | 0.02 | 0.02 | 62 | 1010.7 |
| 20260902210347 | 88 | 65 | 2.0 | 4.0 | 0.02 | 0.02 | 0.02 | 61 | 1010.8 |
| 20260902205855 | 89 | 51 | 2.0 | 3.0 | 0.02 | 0.02 | 0.02 | 61 | 1010.7 |
| 20260902205318 | 89 | 31 | 1.0 | 16.0 | 0.02 | 0.02 | 0.02 | 61 | 1010.9 |
| 20260902204826 | 91 | 315 | 2.0 | 16.0 | 0.02 | 0.02 | 0.02 | 61 | 1011.0 |
| 20260902204331 | 91 | 327 | 5.0 | 10.0 | 0.01 | 0.01 | 0.01 | 62 | 1011.2 |
| 20260902203818 | 91 | 64 | 2.0 | 9.0 | 0.00 | 0.00 | 0.00 | 62 | 1010.9 |
| 20260902203329 | 92 | 55 | 4.0 | 9.0 | 0.00 | 0.00 | 0.00 | 62 | 1010.9 |
| 20260902202834 | 92 | 55 | 5.0 | 9.0 | 0.00 | 0.00 | 0.00 | 62 | 1010.9 |
| 20260902202340 | 92 | 59 | 6.0 | 9.0 | 0.00 | 0.00 | 0.00 | 62 | 1010.9 |
| 20260902201823 | 93 | 79 | 5.0 | 8.0 | 0.00 | 0.00 | 0.00 | 63 | 1010.9 |
| 20260902201335 | 94 | 50 | 5.0 | 7.0 | 0.00 | 0.00 | 0.00 | 64 | 1011.0 |
| 20260902200844 | 94 | 315 | 3.0 | 8.0 | 0.00 | 0.00 | 0.00 | 64 | 1011.0 |